This demonstration page uses our WeatherBlox Daily Observations layout. Learn more.

Left ArrowRight Arrow

Hourly Observations for April 5, 2015

Temp ( °F °C ) Dew Point ( °F °C ) Humidity (%) Winds ( mph kmh ) Pressure ( in mb ) Visibility ( mi km ) Precip ( " mm )
12:53 am 00:53 Clear 50 10 18 -7.8 28 28 S 12 19 29.95 1014 10 16 0.00 0.00
1:53 am 01:53 Clear 49 9.4 18 -7.8 29 29 S 15 24 29.93 1014 10 16 0.00 0.00
2:53 am 02:53 Clear 47 8.3 19 -7.2 33 33 S 13 20 29.91 1013 10 16 0.00 0.00
3:53 am 03:53 Clear 47 8.3 21 -6.1 36 36 S 14 22 29.87 1012 10 16 0.00 0.00
4:53 am 04:53 Clear 45 7.2 22 -5.6 40 40 S 9 15 29.86 1011 10 16 0.00 0.00
5:53 am 05:53 Clear 44 6.7 23 -5 43 43 S 12 19 29.85 1011 10 16 0.00 0.00
6:53 am 06:53 Clear 42 5.6 24 -4.4 49 49 S 10 17 29.85 1011 10 16 0.00 0.00
7:53 am 07:53 Sunny 42 5.6 25 -3.9 51 51 S 10 17 29.85 1011 10 16 0.00 0.00
8:53 am 08:53 Sunny 48 8.9 27 -2.8 44 44 S 12 19 29.85 1011 10 16 0.00 0.00
9:53 am 09:53 Sunny 54 12.2 28 -2.2 37 37 SSW 15 24 29.84 1010 10 16 0.00 0.00
10:53 am 10:53 Sunny 57 13.9 29 -1.7 34 34 SSW 14 22 29.82 1010 10 16 0.00 0.00
11:53 am 11:53 Sunny 61 16.1 30 -1.1 31 31 S 14 22 29.80 1009 10 16 0.00 0.00
12:53 pm 12:53 Sunny 62 16.7 31 -0.6 31 31 S 12 19 29.79 1009 10 16 0.00 0.00
1:53 pm 13:53 Sunny 66 18.9 33 0.6 29 29 S 15 24 29.75 1008 10 16 0.00 0.00
2:53 pm 14:53 Sunny 68 20 35 1.7 30 30 S 18 30 29.73 1007 10 16 0.00 0.00
3:53 pm 15:53 Sunny 70 21.1 36 2.2 29 29 SSW 16 26 29.70 1006 10 16 0.00 0.00
4:53 pm 16:53 Sunny 69 20.6 37 2.8 31 31 S 12 19 29.68 1005 10 16 0.00 0.00
5:53 pm 17:53 Sunny 71 21.7 39 3.9 31 31 S 13 20 29.67 1005 10 16 0.00 0.00
6:53 pm 18:53 Sunny 70 21.1 40 4.4 34 34 S 13 20 29.67 1005 10 16 0.00 0.00
7:53 pm 19:53 Sunny 66 18.9 42 5.6 42 42 SSE 12 19 29.68 1005 10 16 0.00 0.00
8:53 pm 20:53 Clear 62 16.7 46 7.8 56 56 SSE 16 26 29.69 1005 10 16 0.00 0.00
9:53 pm 21:53 Clear 57 13.9 47 8.3 69 69 SSE 14 22 29.71 1006 10 16 0.00 0.00
10:53 pm 22:53 Clear 53 11.7 46 7.8 77 77 SSE 16 26 29.72 1006 10 16 0.00 0.00
11:53 pm 23:53 Mostly Cloudy 52 11.1 47 8.3 83 83 S 16 26 29.72 1007 10 16 0.00 0.00

Powered by AerisWeather